[[{"header":{"parameterUnit":"m.s-1","parameterCategory":1,"la1":30.2991,"la2":30.254,"lo1":-89.0895,"lo2":-89.0444,"dy":0.0017,"dx":0.0017,"nx":28,"ny":28,"refTime":"2023-09-08T09:00:00:Z","depth":0,"parameterNumber":2,"parameterNumberName":"U-component_of_WINDS"},"data":[0,0,0,0,0,0,0,0,0,0,0,0,0,0,0,0,0,0,0,0,0,0,0,0,0,0,0,0,0,0,0,0,0,0,0,0,0,0,0,0,0,0,0,0,0,0,0,0,0,0,0,0,0,0,0,0,0,0,0.8989,0.8991,0,0.9114,0.9115,0.9117,0.9153,0.9152,0.9152,0.9151,0.9279,0.9283,0.9287,0,0,0,0,0,0,0,0,0,0,0,0,0,0.8785,0.8788,0.8989,0.8991,0.8992,0.9114,0.9115,0.9117,0.9153,0.9152,0.9152,0.9151,0.9278,0.9282,0.9287,0,0,0,0,0,0,0,0,0,0,0,0,0,0.8888,0.8789,0.8989,0.9025,0.903,0.9113,0.9115,0.9117,0.9153,0.9152,0.9151,0.915,0.9276,0.9282,0.9288,0.9345,0,0,0.9306,0.9309,0,0,0,0,0,0,0,0,0.8882,0.8895,0.9018,0.9023,0.9028,0.9117,0.909,0.9194,0.9154,0.9106,0.9151,0.915,0.9226,0.9236,0.9261,0.9351,0.9356,0.9307,0.931,0.9313,0.9315,0,0,0,0,0,0,0,0.8875,0.889,0.9039,0.902,0.9026,0.9035,0.9049,0.911,0.917,0.911,0.9113,0.9127,0.9228,0.9256,0.9265,0.9358,0.9307,0.9312,0.9316,0.9318,0.9502,0.9504,0,0,0,0,0,0,0.8861,0.8884,0.9035,0.9042,0.8951,0.904,0.9055,0.9089,0.917,0.9181,0.9128,0.9129,0.9246,0.9258,0.9269,0.9343,0.9313,0.9319,0.9322,0.9501,0.9503,0.9504,0,0,0,0,0,0,0.8857,0.8874,0.903,0.8964,0.8984,0.9045,0.9083,0.9092,0.912,0.9183,0.9194,0.9145,0.9245,0.9261,0.9326,0.9348,0.9321,0.9327,0.95,0.9502,0.9503,0.9489,0,0,0,0,0,0,0.8851,0.8872,0.8894,0.8964,0.8988,0.9084,0.9084,0.9095,0.913,0.9132,0.9202,0.9212,0.9246,0.9317,0.9332,0.9356,0.9332,0.9498,0.9501,0.9503,0.9488,0.949,0.9492,0,0,0,0,0,0.8843,0.8885,0.8895,0.8913,0.9016,0.9085,0.9099,0.9136,0.9131,0.9154,0.9195,0.921,0.9343,0.9323,0.9341,0.9366,0.9497,0.95,0.9503,0.9487,0.949,0.9492,0,0,0,0,0,0,0.8816,0.8895,0.8907,0.8973,0.9022,0.9091,0.9121,0.9138,0.919,0.9189,0.9234,0.9249,0.9312,0.9345,0.9323,0.9427,0.942,0.9427,0.9402,0.9406,0.9408,0.9399,0.9337,0,0,0,0,0,0.8817,0.8866,0.8933,0.8984,0.9008,0.906,0.9092,0.9116,0.9169,0.919,0.9236,0.9287,0.9341,0.9375,0.9427,0.9493,0.9509,0.9519,0.9521,0.9522,0.9528,0.9567,0.9572,0.9514,0.9514,0.9514,0,0,0.8821,0.887,0.8899,0.898,0.9021,0.9072,0.9078,0.913,0.9168,0.9199,0.9263,0.9299,0.9359,0.9425,0.9456,0.9455,0.9548,0.9526,0.9527,0.9532,0.957,0.9576,0.9581,0.9516,0.9515,0.9515,0,0,0.8855,0.8896,0.8944,0.8986,0.9048,0.9082,0.9094,0.9161,0.9186,0.9251,0.9276,0.9321,0.9412,0.9454,0.9488,0.9538,0.9554,0.9554,0.9565,0.9603,0.9607,0.9612,0.9631,0.9637,0.9559,0.9559,0.9559,0,0.8852,0.8928,0.8967,0.9019,0.9055,0.9084,0.9134,0.9172,0.9249,0.9273,0.927,0.9385,0.9428,0.9505,0.9517,0.9543,0.9558,0.9546,0.9603,0.9608,0.9613,0.9632,0.9639,0.9558,0.9558,0.9558,0.9558,0,0.8922,0.8975,0.9007,0.908,0.9119,0.9169,0.9217,0.9252,0.9273,0.9308,0.9375,0.9427,0.9492,0.9512,0.9533,0.9592,0.959,0.9595,0.9589,0.9618,0.9636,0.9644,0.9558,0.9558,0.9558,0.9558,0,0,0.8942,0.9037,0.9048,0.9082,0.9153,0.9195,0.9247,0.931,0.934,0.9392,0.9438,0.9514,0.9519,0.9557,0.9584,0.9616,0.9655,0.9617,0.962,0.9624,0.9725,0.9722,0.973,0.9665,0.9667,0.9668,0.9721,0,0.8985,0.908,0.9117,0.9194,0.9244,0.9273,0.9319,0.9368,0.9402,0.945,0.9488,0.9542,0.9544,0.9568,0.9601,0.9643,0.9676,0.9639,0.971,0.9712,0.9695,0.974,0.9736,0.9784,0.9728,0.9729,0.973,0,0.9048,0.9101,0.9183,0.925,0.9272,0.9313,0.9374,0.9419,0.9476,0.9499,0.9541,0.9566,0.9623,0.9613,0.9693,0.9667,0.9698,0.9723,0.9726,0.9735,0.9724,0.9751,0.9799,0.9807,0.9742,0.9741,0.974,0,0.9056,0.9148,0.9209,0.9238,0.9316,0.9344,0.9378,0.9434,0.947,0.9524,0.9548,0.9607,0.964,0.9686,0.9726,0.9715,0.9803,0.9796,0.9825,0.9824,0.9843,0.9841,0.9898,0.986,0.986,0.986,0.986,0,0.9101,0.9151,0.9214,0.9252,0.9309,0.9351,0.9407,0.9443,0.9492,0.9538,0.9567,0.961,0.966,0.9709,0.9741,0.9804,0.9818,0.9839,0.9847,0.9837,0.9835,0.9859,0.9857,0.9862,0.9861,0.9861,0.9861,0,0.912,0.9164,0.9234,0.9303,0.9321,0.936,0.942,0.9458,0.9494,0.9552,0.9568,0.9624,0.9684,0.9729,0.9806,0.9828,0.9895,0.9902,0.9876,0.988,0.9907,0.9904,0.9982,0.9995,0.9947,0.9947,0.9947,0,0.9147,0.9186,0.9259,0.9293,0.9327,0.9379,0.9416,0.9459,0.9497,0.9565,0.9596,0.9658,0.971,0.9804,0.9852,0.9912,0.9922,0.9945,0.9932,0.9921,0.9925,0.9923,0.9928,0.9948,0.9948,0.9948,0.9949,0,0.919,0.921,0.9263,0.9323,0.9366,0.9416,0.9466,0.9491,0.9544,0.9585,0.9646,0.9687,0.9766,0.9828,0.9893,0.9929,0.9948,0.9952,0.9963,0.9954,0.9937,0.9948,0.9883,0.9951,0.9951,0.995,0.995,0.995,0.9215,0.9252,0.931,0.9367,0.941,0.9456,0.9496,0.9537,0.9589,0.9657,0.968,0.9744,0.9801,0.989,0.9926,0.9978,0.9978,0.9992,0.9996,0.9999,0.9999,0.9928,0.999,0.999,0.999,0.999,0.999,0,0.9262,0.93,0.9353,0.9422,0.9468,0.9482,0.9538,0.9576,0.9632,0.9683,0.9734,0.9806,0.9866,0.9919,0.9981,1.0013,1.0023,1.0028,1.0027,1.0035,0.9995,0.9981,1.0018,1.0018,1.0018,1.0018,1.0018,1.0018,0.9291,0.9354,0.9382,0.9467,0.9505,0.9569,0.96,0.9643,0.9685,0.9764,0.9814,0.9848,0.99,0.9967,1.0024,1.0038,1.006,1.0063,1.008,1.0041,1.0038,1.0035,1.0022,1.0067,1.0067,1.0116,1.0117,1.0117]},{"header":{"parameterUnit":"m.s-1","parameterCategory":1,"la1":30.2991,"la2":30.254,"lo1":-89.0895,"lo2":-89.0444,"dy":0.0017,"dx":0.0017,"nx":28,"ny":28,"refTime":"2023-09-08T09:00:00:Z","depth":0,"parameterNumber":3,"parameterNumberName":"V-component_of_WINDS"},"data":[0,0,0,0,0,0,0,0,0,0,0,0,0,0,0,0,0,0,0,0,0,0,0,0,0,0,0,0,0,0,0,0,0,0,0,0,0,0,0,0,0,0,0,0,0,0,0,0,0,0,0,0,0,0,0,0,0,0,1.0006,1.0007,0,1.0089,1.009,1.0091,1.0111,1.0111,1.011,1.011,1.0188,1.019,1.0193,0,0,0,0,0,0,0,0,0,0,0,0,0,0.9857,0.986,1.0006,1.0007,1.0008,1.0089,1.009,1.0091,1.0111,1.0111,1.011,1.0109,1.0187,1.019,1.0193,0,0,0,0,0,0,0,0,0,0,0,0,0,0.9929,0.9861,1.0006,1.0028,1.0031,1.0089,1.009,1.0091,1.0111,1.0111,1.011,1.0109,1.0186,1.0189,1.0193,1.0233,0,0,1.0205,1.0207,0,0,0,0,0,0,0,0,0.9925,0.9934,1.0024,1.0026,1.003,1.0089,1.0066,1.0139,1.0112,1.008,1.011,1.0109,1.0155,1.0161,1.0178,1.0236,1.024,1.0205,1.0208,1.0209,1.021,0,0,0,0,0,0,0,0.992,0.9931,1.0039,1.0025,1.0029,1.0031,1.0041,1.008,1.0121,1.0083,1.0085,1.0095,1.0156,1.0175,1.018,1.0241,1.0205,1.0209,1.0211,1.0213,1.0336,1.0337,0,0,0,0,0,0,0.9912,0.9927,1.0036,1.0041,0.9975,1.0035,1.0045,1.0071,1.0121,1.0128,1.0095,1.0095,1.0168,1.0176,1.0183,1.0234,1.0209,1.0213,1.0215,1.0335,1.0336,1.0337,0,0,0,0,0,0,0.9909,0.9922,1.0033,0.9984,0.9999,1.0038,1.0067,1.0073,1.0091,1.013,1.0137,1.0107,1.0168,1.0178,1.0221,1.0236,1.0215,1.0218,1.0334,1.0335,1.0337,1.0334,0,0,0,0,0,0,0.9905,0.992,0.9938,0.9985,1.0001,1.0071,1.0068,1.0075,1.0099,1.0099,1.0143,1.0149,1.0168,1.0215,1.0225,1.0241,1.0221,1.0332,1.0334,1.0336,1.0333,1.0335,1.0337,0,0,0,0,0,0.9899,0.9932,0.9938,0.9951,1.0024,1.0072,1.0081,1.0105,1.01,1.0116,1.0141,1.0148,1.0233,1.0219,1.023,1.0248,1.0332,1.0334,1.0336,1.0332,1.0335,1.0337,0,0,0,0,0,0,0.9882,0.9938,0.9946,0.9996,1.0029,1.0075,1.0097,1.0107,1.0141,1.014,1.0165,1.0175,1.0216,1.0236,1.022,1.0289,1.0282,1.0286,1.0275,1.0278,1.028,1.0274,1.0224,0,0,0,0,0,0.9885,0.9922,0.9967,1.0006,1.0023,1.0057,1.0079,1.0094,1.0129,1.0143,1.0171,1.0202,1.0236,1.0258,1.0291,1.0336,1.0345,1.0353,1.0355,1.0357,1.036,1.0385,1.039,1.0344,1.0344,1.0344,0,0,0.989,0.9925,0.9946,1.0004,1.0032,1.0067,1.0069,1.0106,1.0132,1.0147,1.0191,1.0213,1.0249,1.0293,1.0314,1.0311,1.0375,1.036,1.0361,1.0363,1.0388,1.0392,1.0396,1.0346,1.0345,1.0345,0,0,0.9917,0.9947,0.9984,1.0012,1.0055,1.0078,1.0086,1.0131,1.0147,1.0192,1.0204,1.0234,1.0292,1.0318,1.0339,1.0376,1.0383,1.0386,1.0397,1.0421,1.0425,1.0428,1.0442,1.0446,1.0389,1.0389,1.0389,0,0.9916,0.9973,1.0,1.0038,1.0063,1.0081,1.0117,1.0142,1.0193,1.0208,1.0205,1.0279,1.0305,1.0356,1.0365,1.0381,1.0391,1.0382,1.0423,1.0426,1.043,1.0443,1.0448,1.039,1.039,1.039,1.039,0,0.9971,1.001,1.0033,1.0085,1.0112,1.0149,1.0179,1.0203,1.0216,1.0238,1.0283,1.0315,1.0355,1.0368,1.038,1.042,1.0417,1.0418,1.0411,1.0434,1.0447,1.0452,1.039,1.039,1.039,1.039,0,0,0.999,1.0057,1.0065,1.009,1.0139,1.0168,1.0204,1.0247,1.0266,1.03,1.0331,1.038,1.0381,1.0405,1.0419,1.044,1.0468,1.0439,1.044,1.0443,1.0515,1.0515,1.052,1.0473,1.0474,1.0475,1.0512,0,1.0023,1.0093,1.0118,1.0174,1.021,1.0227,1.0259,1.0291,1.0313,1.0344,1.0367,1.0402,1.04,1.0415,1.0436,1.0461,1.0483,1.0458,1.0501,1.0502,1.0492,1.0527,1.0527,1.056,1.0517,1.0518,1.0519,0,1.0072,1.011,1.017,1.0216,1.0232,1.026,1.0301,1.0331,1.0368,1.0382,1.0409,1.0422,1.0459,1.045,1.05,1.0483,1.0501,1.0516,1.0518,1.0523,1.0512,1.0533,1.0571,1.0576,1.0527,1.0526,1.0525,0,1.0081,1.0146,1.0191,1.0211,1.0265,1.0284,1.0307,1.0343,1.0367,1.0402,1.0417,1.0454,1.0475,1.0503,1.0525,1.0517,1.0574,1.0566,1.0585,1.0585,1.0597,1.0596,1.0639,1.0608,1.0608,1.0608,1.0608,0,1.0116,1.0152,1.0196,1.0224,1.0264,1.0292,1.033,1.0354,1.0386,1.0417,1.0433,1.0461,1.0489,1.052,1.0538,1.0577,1.0585,1.0597,1.0601,1.0596,1.0595,1.0609,1.0607,1.0609,1.0609,1.0609,1.0608,0,1.0133,1.0164,1.0214,1.0262,1.0274,1.0302,1.0342,1.0368,1.039,1.0429,1.044,1.0474,1.0512,1.0537,1.0584,1.0596,1.0639,1.0642,1.0628,1.063,1.0648,1.0646,1.0702,1.0711,1.0673,1.0673,1.0674,0,1.0154,1.0183,1.0234,1.0258,1.0281,1.0318,1.0343,1.0371,1.0396,1.044,1.0461,1.05,1.0533,1.0592,1.062,1.0656,1.0661,1.0678,1.0666,1.066,1.0661,1.066,1.0663,1.0679,1.068,1.068,1.068,0,1.0188,1.0202,1.0239,1.0282,1.0312,1.0347,1.038,1.0398,1.0431,1.0458,1.0498,1.0524,1.0574,1.0612,1.0651,1.0672,1.0681,1.0684,1.069,1.0685,1.0676,1.0682,1.0633,1.0682,1.0682,1.0682,1.0682,1.0682,1.0208,1.0234,1.0276,1.0316,1.0345,1.0377,1.0405,1.0431,1.0466,1.0511,1.0524,1.0566,1.0601,1.0655,1.0676,1.0708,1.0706,1.0715,1.0718,1.072,1.072,1.0671,1.0715,1.0715,1.0715,1.0715,1.0715,0,1.0243,1.0271,1.0308,1.0357,1.0389,1.0397,1.0435,1.046,1.0498,1.0531,1.0564,1.061,1.0647,1.0678,1.0717,1.0736,1.0741,1.0745,1.0744,1.0749,1.0719,1.071,1.074,1.074,1.074,1.074,1.074,1.074,1.0265,1.0312,1.033,1.039,1.0417,1.046,1.0481,1.051,1.0537,1.0588,1.0621,1.0642,1.0673,1.0714,1.0748,1.0756,1.077,1.0773,1.0782,1.0753,1.0751,1.0748,1.074,1.0775,1.0775,1.0809,1.0809,1.0809]}]]